Location: Splawn
(30.9202°N, 96.9858°W)
Time: 16:19:23
(UTC+00:00)

Transit 2A Rocket - Pass Details

Date: 28 February 2020
Orbit: 588 x 914 km, 66.7° (Epoch: 04 April)

Event Time Altitude Azimuth Distance (km) Brightness Sun altitude
Rises 14:11:35 0° 309° (NW) 3,304 7.7 14.9°
Reaches altitude 10° 14:15:07 10° 285° (WNW) 2,437 7.1 15.6°
Maximum altitude 14:17:58 14° 255° (WSW) 2,196 7.0 16.2°
Drops below altitude 10° 14:20:54 10° 224° (SW) 2,520 7.5 16.8°
Sets 14:24:42 0° 201° (SSW) 3,497 8.4 17.5°
